Location: Cerezo de Arriba
(41.2389°N, 3.5585°W)
Time: 15:22:39
(UTC+00:00)

COSMOS 2406 - Pass Details

Date: 19 May 2025
Orbit: 845 x 859 km, 71.0° (Epoch: 22 June)

Event Time Altitude Azimuth Distance (km) Brightness Sun altitude
Exits shadow 21:59:08 29° 95° (E) 1,509 4.2 -21.6°
Drops below altitude 10° 22:03:33 10° 45° (NE) 2,481 5.8 -22.0°
Sets 22:06:17 0° 35° (NE) 3,424 6.7 -22.3°
